This demonstration page uses our WeatherBlox Daily Observations layout. Learn more.

Left ArrowRight Arrow

34.16533, -84.80231

Hourly Observations for August 22, 2018

Temp ( °F °C ) Dew Point ( °F °C ) Humidity (%) Winds ( mph kmh ) Pressure ( in mb ) Visibility ( mi km ) Precip ( " mm )
12:53 am 00:53 Clear 71 21.7 69 20.6 94 94 Calm 29.99 1016 10 16 0.00 0.00
1:53 am 01:53 Mostly Cloudy 69 20.6 69 20.6 100 100 Calm 29.99 1016 10 16 0.00 0.00
2:53 am 02:53 Clear 70 21.1 68 20 93 93 Calm 29.98 1015 10 16 0.00 0.00
3:53 am 03:53 Clear 68 20 68 20 100 100 Calm 29.98 1015 9 14 0.00 0.00
4:53 am 04:53 Clear 67 19.4 67 19.4 100 100 Calm 29.98 1015 9 14 0.00 0.00
5:53 am 05:53 Mostly Cloudy 68 20 68 20 100 100 Calm 30.00 1016 9 14 0.00 0.00
6:53 am 06:53 Cloudy 69 20.6 68 20 96 96 VRB 3 6 30.01 1016 10 16 0.00 0.00
7:53 am 07:53 Cloudy 70 21.1 69 20.6 97 97 Calm 30.02 1017 9 14 0.00 0.00
8:53 am 08:53 Cloudy 72 22.2 70 21.1 94 94 VRB 3 6 30.02 1017 10 16 0.00 0.00
9:53 am 09:53 Sunny 76 24.4 70 21.1 82 82 Calm 30.02 1017 10 16 0.00 0.00
10:53 am 10:53 Mostly Cloudy 79 26.1 70 21.1 74 74 N 7 11 30.03 1017 10 16 0.00 0.00
11:53 am 11:53 Partly Cloudy 81 27.2 69 20.6 67 67 undefined N/A 30.03 1017 10 16 0.00 0.00
12:53 pm 12:53 Mostly Cloudy 80 26.7 68 20 67 67 VRB 6 9 30.03 1017 10 16 0.00 0.00
1:53 pm 13:53 Mostly Cloudy 81 27.2 66 18.9 61 61 Calm 30.02 1017 10 16 0.00 0.00
2:53 pm 14:53 Cloudy 80 26.7 65 18.3 60 60 VRB 3 6 30.02 1017 10 16 0.00 0.00
3:53 pm 15:53 Mostly Cloudy 82 27.8 66 18.9 58 58 VRB 6 9 30.01 1016 10 16 0.00 0.00
4:53 pm 16:53 Partly Cloudy 84 28.9 67 19.4 57 57 VRB 7 11 30.00 1016 10 16 0.00 0.00
5:53 pm 17:53 Sunny 81 27.2 66 18.9 61 61 VRB 5 7 29.99 1016 10 16 0.00 0.00
6:53 pm 18:53 Mostly Cloudy 80 26.7 66 18.9 62 62 VRB 5 7 29.99 1016 10 16 0.00 0.00
7:53 pm 19:53 Mostly Sunny 76 24.4 68 20 77 77 Calm 30.00 1016 10 16 0.00 0.00
8:53 pm 20:53 Clear 71 21.7 68 20 90 90 Calm 30.01 1016 10 16 0.00 0.00
9:53 pm 21:53 Clear 71 21.7 68 20 90 90 Calm 30.03 1017 10 16 0.00 0.00
10:53 pm 22:53 Clear 70 21.1 67 19.4 90 90 Calm 30.04 1017 10 16 0.00 0.00
11:53 pm 23:53 Clear 68 20 67 19.4 96 96 Calm 30.04 1017 9 14 0.00 0.00

Powered by AerisWeather